Regional Weather Roundup
Issued by NWS Charleston, SC

Current Version | Previous Version | Graphics & Text | Print | Product List | Glossary On
Versions: 1 2 3 4 5 6 7 8 9 10 11 12 13 14 15 16 17 18 19 20 21 22 23 24 25 26 27 28 29 30 31 32 33 34 35 36 37 38 39 40 41 42 43 44 45 46 47 48 49 50
000 ASUS42 KCHS 021228 RWRCHS REGIONAL WEATHER ROUNDUP NATIONAL WEATHER SERVICE CHARLESTON SC 800 AM EDT MON MAY 02 2016 NOTE: "FAIR" INDICATES FEW OR NO CLOUDS BELOW 12,000 FEET WITH NO SIGNIFICANT WEATHER AND/OR OBSTRUCTIONS TO VISIBILITY. NOT ALL STATIONS ARE QUALITY CONTROLLED. USE DATA WITH CAUTION... ESPECIALLY DEWPOINT OBSERVATIONS. SCZ027-030-031-034>040-042>050-021300- ...SOUTHEAST SOUTH CAROLINA... CITY SKY/WX TMP DP RH WIND PRES REMARKS N CHARLESTON PTSUNNY 73 71 93 S5 30.05R 6HR MIN TEMP: 69; 6HR MAX TEMP: 73; WATERFRONT PRK N/A 73 72 96 VRB2 30.03R MOUNT PLEASANT FAIR 75 73 94 SW7 30.06R JOHNS ISLAND FAIR 77 73 88 SW7 30.06R PINOPOLIS NOT AVBL MONCKS CORNER CLOUDY 68 66 94 SW5 30.06R FOG SUMMERVILLE FOG 70 70 100 CALM 30.06S VSB 1/2 BEAUFORT MCAS PTSUNNY 75 71 87 S3 30.05R 6HR MIN TEMP: 73; 6HR MAX TEMP: 75; BEAUFORT ARPT FAIR 75 72 88 S5 30.05R FOG HILTON HEAD IS SUNNY 75 72 88 S9 30.06R WALTERBORO CLOUDY 73 73 100 S5 30.06S ALLENDALE FOG 68 68 100 CALM 30.05R VSB 1/4 ...SOUTHERN MIDLANDS AND PEE DEE... CITY SKY/WX TMP DP RH WIND PRES REMARKS GEORGETOWN FAIR 72 70 94 SW5 30.07R KINGSTREE FAIR 70 68 94 CALM 30.05S FOG ORANGEBURG FOG 69 68 96 S5 30.05S VSB 1 6HR MIN TEMP: 68; 6HR MAX TEMP: 69; BARNWELL CLOUDY 70 70 100 CALM 30.07R AIKEN FAIR 66 63 88 S3 30.08R MANNING NOT AVBL COLUMBIA PTSUNNY 69 65 86 S3 30.03R 6HR MIN TEMP: 68; 6HR MAX TEMP: 71; 6HR PCP: TRACE; SUMTER CLOUDY 70 66 88 S6 30.02R 6HR MIN TEMP: 70; 6HR MAX TEMP: 71; FLORENCE CLOUDY 71 69 93 SW7 30.04R 6HR MIN TEMP: 67; 6HR MAX TEMP: 71; MYRTLE BEACH PTSUNNY 73 64 73 SW7 30.07 N MYRTLE BEACH PTSUNNY 73 70 90 SW7 30.06R 6HR MIN TEMP: 70; 6HR MAX TEMP: 73; $$ GAZ063-065-086>088-099>101-113>116-118-119-134>141-150-021300- ...SOUTHEAST GEORGIA... CITY SKY/WX TMP DP RH WIND PRES REMARKS SAVANNAH ARPT CLOUDY 74 70 87 S8 30.05R 6HR MIN TEMP: 70; 6HR MAX TEMP: 74; HUNTER AAF PTSUNNY 75 75 100 S6 30.02R 6HR MIN TEMP: 72; 6HR MAX TEMP: 75; FORT STEWART CLOUDY 70 70 100 CALM 30.02S 6HR MIN TEMP: 66; 6HR MAX TEMP: 70; 6HR PCP: 0.01; STATESBORO CLOUDY 74 74 99 SW3 30.05R SYLVANIA MOSUNNY 71 71 100 CALM 30.06R FOG CLAXTON FAIR 71 71 100 CALM 30.05R FOG ...CSRA...CENTRAL AND FAR SOUTHEAST GEORGIA... CITY SKY/WX TMP DP RH WIND PRES REMARKS THOMSON CLOUDY 72 69 89 CALM 30.08S AUGUSTA-BUSH MOSUNNY 67 65 93 CALM 30.03R 6HR MIN TEMP: 64; 6HR MAX TEMP: 69; AUGUSTA-DANIEL CLOUDY 68 64 87 SE5 30.04S SWAINSBORO CLOUDY 68 68 100 S3 30.06R FOG VIDALIA CLOUDY 70 68 94 CALM 30.05R FOG EASTMAN FAIR N/A N/A N/A CALM 30.07R HAZLEHURST FAIR 73 73 100 S5 30.03R ALMA CLOUDY 72 71 97 S5 30.05R 6HR MIN TEMP: 67; 6HR MAX TEMP: 70; WAYCROSS MOSUNNY 72 71 97 S6 30.05R JESUP PTSUNNY 73 73 100 CALM 30.05S BAXLEY CLOUDY 72 72 100 S5 30.05R BRUNSWICK MOSUNNY 77 72 83 S8 30.05S SAINT SIMONS MOSUNNY 74 72 93 S7 30.04R 6HR MIN TEMP: 73; 6HR MAX TEMP: 74; $$ SCZ027-028-034-036>038-045-046-048>050-GAZ119-141-021300- ...LAKE AND SUPPLEMENTAL COASTAL OBSERVATIONS... STATION/POSITION TIME TEMP WIND PRES WAVE SWELL AIR SEA DIR/SP/G HT/PER HT/PER/DIR (UTC) (F) (DEG/KT/KT) (MB) (FT/S) (FT/S/D) WINYAH BAY 1100 72 220/ 3 1017.0R LAKE MURRAY 1100 70 230/ 7/ 9 1016.3R ACE BASIN NERRS 1100 73 CALM 1017.0S FORT PULASKI 1200 75 74 200/ 6/ 11 1017.9R SAPELO ISLAND 1200 75 190/ 7 1017.0S $$ ANZ835-935-AMZ111-154-330-350-352-354-370-450-454-472-021300- ...C-MAN AND BUOY OBSERVATIONS... STATION/POSITION TIME TEMP WIND PRES WAVE SWELL AIR SEA DIR/SP/G HT/PER HT/PER/DIR (UTC) (F) (DEG/KT/KT) (MB) (FT/S) (FT/S/D) BUOY 41004 1150 75 73 200/ 8/ 8 1017.3R 3/ 9 3/ 9 BUOY 41008 NOT AVBL FOLLY BEACH CMAN 1200 73 210/ 6/ 7 1018.0R CAPERS NEARSHORE 1108 72 72 200/ 6/ 8 1017.5R FRIPP NEARSHORE 1208 74 74 220/ 8/ 10 1017.3R STATION/POSITION TIME TEMP WIND PRES WAVE SWELL AIR SEA DIR/SP/G HT/PER HT/PER/DIR (UTC) (F) (DEG/KT/KT) (MB) (FT/S) (FT/S/D) 5E ST. MARYS GA 1121 74 N/A 3/ 6 FRYING PAN BUOY 1200 74 72 190/ 12/ 14 1018.0R BUOY 41025 1150 74 72 220/ 14/ 16 1017.4R 5/10 3/ 80/10 CAPE LOOKOUT NC 1200 71 210/ 10/ 14 1017.0R BUOY 41002 1150 73 74 140/ 8/ 8 1020.3R 3/ 9 3/ 30/ 9 BUOY 41010 1120 77 78 160/ 12/ 16 1017.9R ST AUGUSTINE FL 1200 72 71 140/ 2/ 2 1018.3R $$

USA.gov is the U.S. government's official web portal to all federal, state and local government web resources and services.